Regional Weather Roundup
Issued by NWS Charleston, SC

Current Version | Previous Version | Graphics & Text | Print | Product List | Glossary On
Versions: 1 2 3 4 5 6 7 8 9 10 11 12 13 14 15 16 17 18 19 20 21 22 23 24 25 26 27 28 29 30 31 32 33 34 35 36 37 38 39 40 41 42 43 44 45 46 47 48 49 50
000
ASUS42 KCHS 190710
RWRCHS
REGIONAL WEATHER ROUNDUP
NATIONAL WEATHER SERVICE CHARLESTON SC
200 AM EST FRI DEC 19 2014

NOTE: "FAIR" INDICATES FEW OR NO CLOUDS BELOW 12,000 FEET WITH NO
SIGNIFICANT WEATHER AND/OR OBSTRUCTIONS TO VISIBILITY.

NOT ALL STATIONS ARE QUALITY CONTROLLED BY THE NATIONAL
WEATHER SERVICE. USE DATA WITH CAUTION...ESPECIALLY
DEWPOINT OBSERVATIONS.

SCZ027-030-031-034>040-042>050-190800-
...SOUTHEAST SOUTH CAROLINA...

CITY           SKY/WX    TMP DP  RH WIND       PRES   REMARKS
N CHARLESTON   MOCLDY    45  43  93 CALM      30.10S
WATERFRONT PRK   N/A     50 N/A N/A CALM        N/A
MOUNT PLEASANT FAIR      43  43 100 CALM      30.10R
PINOPOLIS        N/A     48  45  87 MISG      30.00F
MONCKS CORNER  FAIR      43  41  93 CALM      30.09S FOG
SUMMERVILLE    NOT AVBL
BEAUFORT MCAS  CLOUDY    46  43  89 CALM      30.11R
BEAUFORT ARPT  FAIR      46  46 100 CALM      30.09S
HILTON HEAD IS CLOUDY    46  46 100 CALM      30.12R
WALTERBORO     CLOUDY    43 N/A N/A CALM      30.10F
ALLENDALE      FAIR      41  41 100 CALM      30.09F

...SOUTHERN MIDLANDS AND PEE DEE...

CITY           SKY/WX    TMP DP  RH WIND       PRES   REMARKS
GEORGETOWN     NOT AVBL
KINGSTREE      NOT AVBL
ORANGEBURG     MOCLDY    41  38  89 CALM      30.09F
BARNWELL         N/A     39  39 100 CALM      30.10S
AIKEN          FAIR      37  37 100 CALM      30.12S
MANNING        NOT AVBL
COLUMBIA       PTCLDY    40  36  86 CALM      30.09S
SUMTER         MOCLDY    40  36  86 CALM      30.07F
FLORENCE       PTCLDY    39  34  82 CALM      30.09F
MYRTLE BEACH   PTCLDY    39  36  87 N5        30.10S WCI  36
N MYRTLE BEACH PTCLDY    37  35  92 CALM      30.09F

$$

GAZ063-065-086>088-099>101-113>116-118-119-134>141-150-190800-
...SOUTHEAST GEORGIA...

CITY           SKY/WX    TMP DP  RH WIND       PRES   REMARKS
SAVANNAH ARPT  CLOUDY    46  41  82 CALM      30.11R
HUNTER AAF     CLOUDY    45  43  93 W6        30.09R
FORT STEWART   CLOUDY    45  40  84 CALM      30.10S
STATESBORO     CLOUDY    43  43 100 CALM      30.11R
SYLVANIA       CLOUDY    43  42  98 CALM      30.11S
CLAXTON        FAIR      43  41  93 CALM      30.12S

...CSRA...CENTRAL AND FAR SOUTHEAST GEORGIA...

CITY           SKY/WX    TMP DP  RH WIND       PRES   REMARKS
THOMSON        MOCLDY    44  40  86 CALM      30.14S
AUGUSTA-BUSH   MOCLDY    37  36  96 CALM      30.10S
AUGUSTA-DANIEL MOCLDY    50  36  58 NW9       30.09F
SWAINSBORO     FAIR      45  41  87 CALM      30.11F
VIDALIA        CLOUDY    50  37  62 NW3       30.12S
EASTMAN        FAIR      42  38  85 CALM      30.15F
HAZLEHURST     FAIR      45  43  92 CALM      30.12R
ALMA           PTCLDY    47  37  68 NW6       30.12R
WAYCROSS       MOCLDY    47  45  90 CALM      30.12S
JESUP          FAIR      45  43  93 CALM      30.11S
BAXLEY         FAIR      45  41  87 CALM      30.12S
BRUNSWICK      PTCLDY    45  43  93 CALM      30.11F
SAINT SIMONS   PTCLDY    47  42  83 W3        30.11S

$$

SCZ027-028-034-036>038-045-046-048>050-GAZ119-141-190800-
...LAKE AND SUPPLEMENTAL COASTAL OBSERVATIONS...

STATION/POSITION TIME  TEMP    WIND        PRES    WAVE   SWELL
                       AIR SEA DIR/SP/G            HT/PER HT/PER/DIR
                 (UTC) (F)     (DEG/KT/KT) (MB)    (FT/S) (FT/S/D)
UPR LAKE MARION  NOT AVBL
WINYAH BAY       0600   43     320/  2     1019.0S
LAKE MURRAY      0600   48      CALM  /  1 1018.3S
ACE BASIN NERRS  0600   45        CALM     1019.0S
FORT PULASKI     0700   51 56  280/  3/  3 1019.8R
SAPELO ISLAND    0600   48        CALM     1019.0F

$$

ANZ835-935-AMZ111-154-330-350-352-354-370-450-454-472-190800-
...C-MAN AND BUOY OBSERVATIONS...

STATION/POSITION TIME  TEMP    WIND        PRES    WAVE   SWELL
                       AIR SEA DIR/SP/G            HT/PER HT/PER/DIR
                 (UTC) (F)     (DEG/KT/KT) (MB)    (FT/S) (FT/S/D)
BUOY 41004       0700   60 72  330/  8/ 12 1018.5F   2/10   2/10
BUOY 41008       0700   57 57  280/  8/  8 1019.2F   1/ 9   2/110/ 9
FOLLY BEACH CMAN 0600   49     300/  3/  4 1019.3F
CAPERS NEARSHORE 0600   52      10/  6/  6   N/A
FRIPP NEARSHORE  NOT AVBL


STATION/POSITION TIME  TEMP    WIND        PRES    WAVE   SWELL
                       AIR SEA DIR/SP/G            HT/PER HT/PER/DIR
                 (UTC) (F)     (DEG/KT/KT) (MB)    (FT/S) (FT/S/D)
5E ST. MARYS GA  0700      61                N/A     1/10
FRYING PAN BUOY  0700   56 65  340/  8/ 10 1019.4F   2/10   2/110/10
BUOY 41025       0700   48                 1019.0F   3/ 8
CAPE LOOKOUT NC  0600   48      30/  1/  1 1018.6F
BUOY 41002       0640   69 72  280/ 10/ 12 1017.6R   3/ 5   2/320/ 5
BUOY 41010       0700   69 76  310/  8/ 10 1019.0R   2/ 9   2/ 90/ 9
ST AUGUSTINE FL  0700   52     310/  7/  8 1020.5F


$$


USA.gov is the U.S. government's official web portal to all federal, state and local government web resources and services.